Weather History for KPIE - March, 2013

Change the Weather History Date:

Saturday, March 16, 2013

  Actual Average Record
Temperature  
Mean Temperature 60 °F -  
Max Temperature 75 °F 75 °F 84 °F (1963)
Min Temperature 46 °F 62 °F 43 °F (1954)
Degree Days  
Heating Degree Days 4    
Growing Degree Days 10 (Base 50)    
Moisture  
Dew Point 46 °F    
Average Humidity 74    
Maximum Humidity 93    
Minimum Humidity 27    
Precipitation  
Precipitation 0.00 in - - ()
Sea Level Pressure  
Sea Level Pressure 30.16 in    
Wind  
Wind Speed 2 mph (South)    
Max Wind Speed 13 mph    
Max Gust Speed -    
Visibility 7 miles    
Events Fog    
Averages and records for this station are not official NWS values.
T = Trace of Precipitation, MM = Missing Value Source: NWS Daily Summary

Daily Weather History Graph

Daily Weather History Graph

Search for Another Location

Airport or City:

Trip Planner

Search our weather history database for the weather conditions in past years. The results will help you decide how hot, cold, wet, or windy it might be!

Date:

Astronomy

Mar. 16, 2013 Rise Set
Actual Time 7:38 AM EDT 7:40 PM EDT
Civil Twilight 7:15 AM EDT 8:03 PM EDT
Nautical Twilight 6:48 AM EDT 8:30 PM EDT
Astronomical Twilight 6:21 AM EDT 8:58 PM EDT
Moon 10:33 AM EDT (3/16) No Moon Set
Length of Visible Light 12h 47m
Length of Day
12h 01m
Waxing Crescent, 23% of the Moon is Illuminated
Mar 16
Waxing Crescent
Mar 19
First Quarter
Mar 27
Full
Apr 3
Last Quarter
Apr 10
New

Hourly Weather History & Observations

Time (EDT) Temp. Windchill Dew Point Humidity Pressure Visibility Wind Dir Wind Speed Gust Speed Precip Events Conditions
12:53 AM 53.1 °F - 46.9 °F 80% 30.21 in 10.0 mi Calm Calm - N/A   Clear
1:53 AM 48.9 °F - 45.0 °F 86% 30.19 in 9.0 mi Calm Calm - N/A   Clear
2:53 AM 50.0 °F - 46.0 °F 86% 30.19 in 9.0 mi Calm Calm - N/A   Clear
3:53 AM 48.0 °F - 45.0 °F 89% 30.17 in 6.0 mi Calm Calm - N/A   Clear
4:16 AM 48.2 °F - 46.4 °F 93% 30.17 in 1.8 mi Calm Calm - N/A   Clear
4:24 AM 48.2 °F - 46.4 °F 93% 30.17 in 0.5 mi SE 3.5 mph - N/A Fog Fog
4:30 AM 48.2 °F - 44.6 °F 87% 30.17 in 3.0 mi ESE 3.5 mph - N/A   Clear
4:53 AM 48.0 °F - 46.0 °F 93% 30.16 in 4.0 mi Calm Calm - N/A   Clear
5:08 AM 48.2 °F - 44.6 °F 87% 30.16 in 2.0 mi Calm Calm - N/A   Clear
5:28 AM 46.4 °F - 44.6 °F 93% 30.16 in 7.0 mi Calm Calm - N/A   Clear
5:53 AM 48.0 °F - 45.0 °F 89% 30.17 in 5.0 mi Calm Calm - N/A   Clear
6:22 AM 48.2 °F - 44.6 °F 87% 30.17 in 1.0 mi SE 3.5 mph - N/A   Mist
6:29 AM 46.4 °F 45.2 °F 44.6 °F 93% 30.17 in 0.2 mi SE 3.5 mph - N/A Fog Fog
6:43 AM 46.4 °F - 44.6 °F 93% 30.17 in 1.2 mi Calm Calm - N/A   Partly Cloudy
6:46 AM 48.2 °F - 44.6 °F 87% 30.17 in 3.0 mi Calm Calm - N/A   Partly Cloudy
6:53 AM 48.0 °F - 45.0 °F 89% 30.18 in 4.0 mi Calm Calm - N/A   Partly Cloudy
7:38 AM 46.4 °F 45.2 °F 44.6 °F 93% 30.19 in 1.8 mi South 3.5 mph - N/A   Clear
7:50 AM 46.4 °F - 44.6 °F 93% 30.19 in 3.0 mi Calm Calm - N/A   Clear
7:53 AM 46.0 °F - 44.1 °F 93% 30.19 in 3.0 mi Calm Calm - N/A   Clear
8:53 AM 55.0 °F - 51.1 °F 86% 30.20 in 10.0 mi Calm Calm - N/A   Clear
9:53 AM 62.1 °F - 48.9 °F 62% 30.21 in 10.0 mi SE 3.5 mph - N/A   Clear
10:53 AM 69.1 °F - 41.0 °F 36% 30.20 in 10.0 mi SE 8.1 mph - N/A   Clear
11:53 AM 71.1 °F - 39.9 °F 32% 30.19 in 10.0 mi SSE 6.9 mph - N/A   Clear
12:53 PM 73.0 °F - 43.0 °F 34% 30.17 in 10.0 mi Variable 4.6 mph - N/A   Clear
1:53 PM 75.0 °F - 41.0 °F 29% 30.15 in 10.0 mi West 9.2 mph - N/A   Clear
2:53 PM 75.0 °F - 39.0 °F 27% 30.13 in 10.0 mi SW 9.2 mph - N/A   Clear
3:53 PM 73.9 °F - 41.0 °F 30% 30.11 in 10.0 mi SW 12.7 mph - N/A   Clear
4:53 PM 73.0 °F - 43.0 °F 34% 30.10 in 10.0 mi SW 11.5 mph - N/A   Clear
5:53 PM 71.1 °F - 45.0 °F 39% 30.10 in 10.0 mi WSW 11.5 mph - N/A   Clear
6:53 PM 68.0 °F - 53.1 °F 59% 30.11 in 10.0 mi SW 10.4 mph - N/A   Clear
7:53 PM 66.0 °F - 55.0 °F 68% 30.11 in 10.0 mi SW 12.7 mph - N/A   Clear
8:53 PM 63.0 °F - 55.9 °F 78% 30.11 in 10.0 mi SW 6.9 mph - N/A   Clear
9:53 PM 60.1 °F - 55.0 °F 83% 30.12 in 10.0 mi Calm Calm - N/A   Clear
10:53 PM 57.0 °F - 54.0 °F 89% 30.13 in 9.0 mi SSW 3.5 mph - N/A   Clear
11:53 PM 55.9 °F - 53.1 °F 90% 30.12 in 7.0 mi Calm Calm - N/A   Clear